Home > Weather > Erfurt > Past weeks

Flag for Germany Weather for the Past 2 Weeks in Erfurt, Thuringia, Germany

Now
57 °F

Passing clouds.


Feels Like: 57 °F
Forecast: 49 / 70 °F
Wind: 5 mph from Northeast

Location: Erfurt-Bindersleben

Current Time: May 6, 2016 at 9:33:15 AM

Latest Report: May 6, 2016 at 9:20 AM


Visibility: N/A

Pressure: 30.12 "Hg

Humidity: 72%

Dew Point: 48 °F

Location of ErfurtLocation

Historic Weather in Erfurt — Graph

°F

Erfurt Temperature Yesterday

Maximum temperature yesterday: 63 °F (at 3:20 PM)
Minimum temperature yesterday: 41 °F (at 4:50 AM)
Average temperature yesterday: 52 °F

High & Low Weather Summary for the Past Weeks

 TemperatureHumidityPressure
High63 °F (May 2, 3:20 PM)100% (Apr 25, 2:20 AM)30.39 "Hg (Apr 25, 2:20 AM)
Low28 °F (Apr 24, 4:50 AM)41% (Apr 21, 8:20 PM)29.47 "Hg (Apr 26, 1:50 AM)
Average45 °F69%30.00 "Hg
* Reported Apr 21 8:20 AM — May 6 8:20 AM, Erfurt, Weather by CustomWeather, © 2016

Note: Actual official high and low records may vary slightly from our data, if they occured in-between our weather recording intervals... More about our weather records

Advertising

Erfurt Weather History for the Previous 24 Hours

Scroll right to see more
 ConditionsComfort  
Time TempWeatherWind HumidityBarometerVisibility
8:20 AM
Fri, May 6
52 °FSunny.5 mph82%30.12 "Hg10 mi
7:50 AM50 °FSunny.3 mph82%30.12 "Hg10 mi
7:20 AM50 °FPassing clouds.3 mph82%30.12 "HgN/A
6:50 AM48 °FSunny.3 mph87%30.12 "Hg10 mi
6:20 AM48 °FClear.3 mph87%30.12 "Hg10 mi
5:50 AM48 °FClear.2 mph87%30.12 "Hg10 mi
5:20 AM48 °FClear.2 mph87%30.12 "Hg10 mi
4:50 AM48 °FClear.2 mph82%30.12 "Hg10 mi
4:20 AM48 °FPassing clouds.3 mph82%30.15 "HgN/A
3:50 AM48 °FClear.5 mph82%30.15 "Hg10 mi
3:20 AM50 °FClear.3 mph82%30.15 "Hg10 mi
2:50 AM50 °FClear.5 mph76%30.15 "Hg10 mi
2:20 AM50 °FClear.6 mph76%30.15 "Hg10 mi
1:50 AM50 °FClear.3 mph76%30.15 "Hg10 mi
1:20 AM50 °FClear.5 mph82%30.18 "Hg10 mi
12:50 AM52 °FClear.3 mph77%30.18 "Hg10 mi
12:20 AM52 °FClear.6 mph77%30.18 "Hg10 mi
11:50 PM
Thu, May 5
52 °FClear.7 mph82%30.18 "Hg10 mi
11:20 PM52 °FClear.8 mph82%30.18 "Hg10 mi
10:50 PM54 °FClear.8 mph77%30.18 "Hg10 mi
10:20 PM54 °FClear.8 mph77%30.18 "Hg10 mi
9:50 PM54 °FClear.8 mph77%30.18 "Hg10 mi
9:20 PM55 °FSunny.6 mph72%30.18 "Hg10 mi
8:50 PM57 °FPassing clouds.7 mph67%30.18 "HgN/A
8:20 PM57 °FSunny.8 mph67%30.18 "Hg10 mi
7:50 PM59 °FPassing clouds.10 mph63%30.18 "HgN/A
7:20 PM61 °FPassing clouds.10 mph59%30.18 "HgN/A
6:50 PM63 °FPassing clouds.12 mph52%30.21 "HgN/A
6:20 PM63 °FPassing clouds.10 mph52%30.21 "HgN/A
5:50 PM63 °FPassing clouds.12 mph49%30.21 "HgN/A
5:20 PM63 °FPassing clouds.10 mph49%30.21 "HgN/A
4:50 PM63 °FScattered clouds.10 mph49%30.24 "HgN/A
4:20 PM63 °FPassing clouds.12 mph49%30.24 "HgN/A
3:50 PM63 °FPassing clouds.9 mph45%30.24 "HgN/A
3:20 PM63 °FPassing clouds.12 mph45%30.27 "HgN/A
2:50 PM61 °FPassing clouds.10 mph45%30.27 "HgN/A
2:20 PM61 °FPassing clouds.10 mph48%30.30 "HgN/A
1:50 PM61 °FPassing clouds.10 mph48%30.30 "HgN/A
1:20 PM59 °FPassing clouds.13 mph51%30.30 "HgN/A
12:50 PM59 °FPassing clouds.12 mph48%30.30 "HgN/A
12:20 PM57 °FPassing clouds.12 mph51%30.33 "HgN/A
11:50 AM57 °FPassing clouds.10 mph51%30.33 "HgN/A
11:20 AM55 °FPassing clouds.10 mph55%30.33 "HgN/A
10:50 AM55 °FPassing clouds.10 mph59%30.33 "HgN/A
10:20 AM54 °FPassing clouds.7 mph63%30.36 "HgN/A
9:50 AM52 °FPassing clouds.7 mph67%30.36 "HgN/A
9:20 AM50 °FPassing clouds.5 mph67%30.36 "HgN/A
Weather by CustomWeather, © 2016

See weather overviewHow to use our weather pages